AAL800 KOKC-PANC

Flight info

Callsign AAL800
Flight time 5h 32m
Altitude 38000
Route STPHN3 ZEEWE MMB GCK GLD CYS/N0485F400 BOY BZN TWIGY ENDBY YYD LVD LAIRE JOH WITTI5
Aircraft B772/H-SDE2E3FGHIJ5LORVWXY/LB1D1

Departure

Time 2026-04-30 12:45
Airport OKC Will Rogers World Airport (KOKC)

Arrival

Time 2026-04-30 18:17
Airport Ted Stevens Anchorage International Airport (PANC)
Time Latitude Longitude Altitude Speed Heading
2026-04-30 12:28 35.39518 -97.59372 1301 ft 0 kts 270°
2026-04-30 12:33 35.39518 -97.59357 1301 ft 2 kts 270°
2026-04-30 12:33 35.39518 -97.59336 1301 ft 2 kts 270°
2026-04-30 12:33 35.39518 -97.59316 1301 ft 2 kts 270°
2026-04-30 12:34 35.39518 -97.59297 1301 ft 2 kts 270°
2026-04-30 12:34 35.39518 -97.59279 1301 ft 0 kts 270°
2026-04-30 12:34 35.39519 -97.59264 1301 ft 2 kts 263°
2026-04-30 12:34 35.39523 -97.59245 1301 ft 2 kts 247°
2026-04-30 12:35 35.39530 -97.59227 1301 ft 2 kts 234°
2026-04-30 12:35 35.39541 -97.59212 1300 ft 2 kts 220°
2026-04-30 12:35 35.39555 -97.59200 1300 ft 1 kts 206°
2026-04-30 12:35 35.39559 -97.59198 1300 ft 0 kts 204°
2026-04-30 12:39 35.39542 -97.59205 1300 ft 6 kts 192°
2026-04-30 12:39 35.39460 -97.59211 1301 ft 15 kts 182°
2026-04-30 12:40 35.39337 -97.59215 1301 ft 17 kts 180°
2026-04-30 12:40 35.39222 -97.59271 1300 ft 18 kts 243°
2026-04-30 12:40 35.39214 -97.59438 1300 ft 20 kts 268°
2026-04-30 12:40 35.39214 -97.59618 1299 ft 21 kts 269°
2026-04-30 12:41 35.39214 -97.59815 1297 ft 23 kts 270°
2026-04-30 12:41 35.39213 -97.60020 1296 ft 24 kts 269°
2026-04-30 12:41 35.39213 -97.60236 1293 ft 23 kts 269°
2026-04-30 12:41 35.39173 -97.60366 1291 ft 16 kts 188°
2026-04-30 12:42 35.39037 -97.60355 1289 ft 19 kts 175°
2026-04-30 12:42 35.38873 -97.60339 1287 ft 25 kts 176°
2026-04-30 12:42 35.38663 -97.60331 1283 ft 31 kts 180°
2026-04-30 12:42 35.38421 -97.60329 1279 ft 33 kts 178°
2026-04-30 12:43 35.38178 -97.60329 1274 ft 35 kts 179°
2026-04-30 12:43 35.37977 -97.60332 1271 ft 13 kts 190°
2026-04-30 12:43 35.37916 -97.60431 1270 ft 16 kts 267°
2026-04-30 12:43 35.37918 -97.60550 1270 ft 10 kts 291°
2026-04-30 12:44 35.37957 -97.60571 1270 ft 0 kts 360°
2026-04-30 12:44 35.38061 -97.60570 1272 ft 53 kts
2026-04-30 12:44 35.38770 -97.60574 1283 ft 142 kts
2026-04-30 12:44 35.39995 -97.60580 1632 ft 186 kts
2026-04-30 12:45 35.41249 -97.60641 2840 ft 177 kts 358°
2026-04-30 12:45 35.42494 -97.61065 3403 ft 191 kts 335°
2026-04-30 12:45 35.43467 -97.62375 3751 ft 218 kts 290°
2026-04-30 12:45 35.43732 -97.64326 4130 ft 237 kts 276°
2026-04-30 12:46 35.43903 -97.66525 4617 ft 256 kts 275°
2026-04-30 12:46 35.44076 -97.68825 5135 ft 273 kts 275°
2026-04-30 12:46 35.44259 -97.71258 5776 ft 284 kts 276°
2026-04-30 12:46 35.44445 -97.73739 6658 ft 286 kts 276°
2026-04-30 12:47 35.44627 -97.76166 7553 ft 285 kts 276°
2026-04-30 12:47 35.44809 -97.78616 8431 ft 286 kts 276°
2026-04-30 12:47 35.44992 -97.81077 9309 ft 286 kts 276°
2026-04-30 12:47 35.45178 -97.83576 10188 ft 285 kts 276°
2026-04-30 12:48 35.45367 -97.86126 10736 ft 298 kts 276°
2026-04-30 12:48 35.45558 -97.88710 11181 ft 312 kts 275°
2026-04-30 12:48 35.45768 -97.91548 11625 ft 327 kts 276°
2026-04-30 12:48 35.45985 -97.94494 12086 ft 341 kts 275°
2026-04-30 12:49 35.46211 -97.97586 12572 ft 354 kts 275°
2026-04-30 12:49 35.46437 -98.00682 13226 ft 360 kts 275°
2026-04-30 12:49 35.46667 -98.03830 14067 ft 361 kts 275°
2026-04-30 12:49 35.46895 -98.06963 14925 ft 362 kts 275°
2026-04-30 12:50 35.47128 -98.10172 15759 ft 364 kts 275°
2026-04-30 12:50 35.47363 -98.13396 16552 ft 367 kts 274°
2026-04-30 12:50 35.47646 -98.16740 17349 ft 369 kts 275°
2026-04-30 12:50 35.47955 -98.20094 18093 ft 373 kts 275°
2026-04-30 12:51 35.48251 -98.23338 18824 ft 374 kts 275°
2026-04-30 12:51 35.48543 -98.26554 19579 ft 375 kts 275°
2026-04-30 12:51 35.48837 -98.29820 20289 ft 376 kts 275°
2026-04-30 12:51 35.49137 -98.33170 20989 ft 377 kts 275°
2026-04-30 12:52 35.49432 -98.36475 21663 ft 379 kts 275°
2026-04-30 12:52 35.49723 -98.39746 22318 ft 380 kts 275°
2026-04-30 12:52 35.50019 -98.43091 22973 ft 381 kts 275°
2026-04-30 12:52 35.50318 -98.46475 23589 ft 382 kts 275°
2026-04-30 12:53 35.50610 -98.49791 24230 ft 382 kts 275°
2026-04-30 12:53 35.50898 -98.53065 24892 ft 381 kts 275°
2026-04-30 12:53 35.51196 -98.56482 25552 ft 381 kts 274°
2026-04-30 12:53 35.51487 -98.59818 26086 ft 383 kts 275°
2026-04-30 12:54 35.51781 -98.63206 26645 ft 384 kts 274°
2026-04-30 12:54 35.52068 -98.66515 27235 ft 383 kts 274°
2026-04-30 12:54 35.52347 -98.69751 27862 ft 382 kts 273°
2026-04-30 12:54 35.52630 -98.73038 28436 ft 382 kts 274°
2026-04-30 12:55 35.52907 -98.76269 29014 ft 381 kts 273°
2026-04-30 12:55 35.53183 -98.79494 29559 ft 381 kts 274°
2026-04-30 12:55 35.53462 -98.82744 30024 ft 383 kts 273°
2026-04-30 12:55 35.53741 -98.86018 30470 ft 385 kts 273°
2026-04-30 12:56 35.54022 -98.89317 30982 ft 385 kts 274°
2026-04-30 12:56 35.54300 -98.92601 31562 ft 383 kts 274°
2026-04-30 12:56 35.54570 -98.95790 32205 ft 379 kts 274°
2026-04-30 12:56 35.54840 -98.98987 32961 ft 373 kts 275°
2026-04-30 12:57 35.55104 -99.02129 33615 ft 369 kts 274°
2026-04-30 12:57 35.55398 -99.05245 34178 ft 369 kts 277°
2026-04-30 12:57 35.55942 -99.08316 34739 ft 369 kts 281°
2026-04-30 12:57 35.56766 -99.11272 35387 ft 369 kts 287°
2026-04-30 12:58 35.57868 -99.14105 36102 ft 368 kts 291°
2026-04-30 12:58 35.59224 -99.16756 36769 ft 369 kts 297°
2026-04-30 12:58 35.60832 -99.19239 37192 ft 374 kts 302°
2026-04-30 12:58 35.62682 -99.21520 37422 ft 384 kts 307°
2026-04-30 12:59 35.64793 -99.23589 37753 ft 391 kts 311°
2026-04-30 12:59 35.67000 -99.25546 38100 ft 390 kts 312°
2026-04-30 12:59 35.71388 -99.29485 38096 ft 391 kts 311°
2026-04-30 13:00 35.75748 -99.33455 38097 ft 388 kts 311°
2026-04-30 13:00 35.80063 -99.37416 38102 ft 388 kts 311°
2026-04-30 13:01 35.84382 -99.41400 38100 ft 387 kts 311°
2026-04-30 13:01 35.88694 -99.45388 38097 ft 389 kts 311°
2026-04-30 13:02 35.92990 -99.49367 38101 ft 388 kts 311°
2026-04-30 13:02 35.97311 -99.53377 38103 ft 388 kts 311°
2026-04-30 13:03 36.01609 -99.57373 38094 ft 389 kts 311°
2026-04-30 13:03 36.05924 -99.61387 38097 ft 387 kts 311°
2026-04-30 13:04 36.10236 -99.65410 38112 ft 390 kts 310°
2026-04-30 13:04 36.14571 -99.69456 38136 ft 387 kts 311°
2026-04-30 13:05 36.18844 -99.73450 38135 ft 387 kts 311°
2026-04-30 13:06 36.25298 -99.79497 38121 ft 389 kts 310°
2026-04-30 13:06 36.29588 -99.83521 38119 ft 389 kts 311°
2026-04-30 13:07 36.33978 -99.87498 38122 ft 395 kts 315°
2026-04-30 13:07 36.38997 -99.90510 38130 ft 407 kts 323°
2026-04-30 13:08 36.44267 -99.93250 38131 ft 413 kts 323°
2026-04-30 13:08 36.49546 -99.96008 38133 ft 413 kts 323°
2026-04-30 13:09 36.54845 -99.98792 38129 ft 414 kts 323°
2026-04-30 13:09 36.60101 -100.01560 38129 ft 414 kts 322°
2026-04-30 13:10 36.65398 -100.04356 38128 ft 411 kts 322°
2026-04-30 13:10 36.70683 -100.07153 38129 ft 412 kts 322°
2026-04-30 13:11 36.75940 -100.09943 38130 ft 415 kts 322°
2026-04-30 13:11 36.81245 -100.12757 38131 ft 413 kts 322°
2026-04-30 13:12 36.86533 -100.15569 38124 ft 412 kts 322°
2026-04-30 13:12 36.91829 -100.18391 38132 ft 416 kts 322°
2026-04-30 13:13 36.99776 -100.22629 38134 ft 413 kts 322°
2026-04-30 13:14 37.07715 -100.26875 38128 ft 415 kts 322°
2026-04-30 13:14 37.15636 -100.31120 38134 ft 413 kts 322°
2026-04-30 13:15 37.23615 -100.35410 38133 ft 417 kts 322°
2026-04-30 13:16 37.28941 -100.38275 38134 ft 417 kts 322°
2026-04-30 13:16 37.34259 -100.41140 38129 ft 415 kts 322°
2026-04-30 13:17 37.42251 -100.45458 38123 ft 417 kts 322°
2026-04-30 13:18 37.50250 -100.49789 38126 ft 417 kts 322°
2026-04-30 13:18 37.58257 -100.54133 38126 ft 416 kts 322°
2026-04-30 13:19 37.63579 -100.57030 38133 ft 419 kts 323°
2026-04-30 13:19 37.68934 -100.59944 38130 ft 418 kts 323°
2026-04-30 13:20 37.74238 -100.62837 38129 ft 418 kts 323°
2026-04-30 13:20 37.79609 -100.65773 38161 ft 420 kts 322°
2026-04-30 13:21 37.84958 -100.68699 38169 ft 419 kts 322°
2026-04-30 13:22 37.92984 -100.73113 38169 ft 416 kts 321°
2026-04-30 13:22 38.00661 -100.78095 38175 ft 410 kts 319°
2026-04-30 13:23 38.08324 -100.83083 38171 ft 415 kts 320°
2026-04-30 13:24 38.18623 -100.89768 38163 ft 416 kts 320°
2026-04-30 13:25 38.28902 -100.96452 38164 ft 416 kts 320°
2026-04-30 13:26 38.41777 -101.04851 38168 ft 418 kts 320°
2026-04-30 13:28 38.54707 -101.13313 38160 ft 414 kts 320°
2026-04-30 13:28 38.62417 -101.18382 38149 ft 417 kts 320°
2026-04-30 13:29 38.72722 -101.25172 38146 ft 418 kts 320°
2026-04-30 13:31 38.85657 -101.33725 38145 ft 419 kts 320°
2026-04-30 13:32 38.98582 -101.42308 38141 ft 421 kts 320°
2026-04-30 13:33 39.08961 -101.49226 38153 ft 421 kts 320°
2026-04-30 13:34 39.16792 -101.54459 38139 ft 420 kts 321°
2026-04-30 13:35 39.27242 -101.61468 38147 ft 426 kts 321°
2026-04-30 13:36 39.37597 -101.68861 38173 ft 418 kts 313°
2026-04-30 13:36 39.39762 -101.71254 38188 ft 407 kts 306°
2026-04-30 13:36 39.43396 -101.76723 38158 ft 401 kts 301°
2026-04-30 13:37 39.48625 -101.85126 38158 ft 399 kts 300°
2026-04-30 13:38 39.53857 -101.93590 38147 ft 402 kts 301°
2026-04-30 13:39 39.60852 -102.04952 38150 ft 407 kts 301°
2026-04-30 13:40 39.66117 -102.13529 38150 ft 406 kts 301°
2026-04-30 13:40 39.69644 -102.19290 38195 ft 407 kts 301°
2026-04-30 13:41 39.73157 -102.25042 38149 ft 410 kts 301°
2026-04-30 13:41 39.76708 -102.30864 38152 ft 413 kts 301°
2026-04-30 13:42 39.80252 -102.36682 38137 ft 409 kts 302°
2026-04-30 13:42 39.85572 -102.45444 38146 ft 414 kts 302°
2026-04-30 13:43 39.89158 -102.51363 38143 ft 418 kts 302°
2026-04-30 13:43 39.92730 -102.57266 38150 ft 415 kts 302°
2026-04-30 13:44 39.96320 -102.63214 38149 ft 420 kts 302°
2026-04-30 13:44 39.99913 -102.69177 38158 ft 418 kts 301°
2026-04-30 13:45 40.05321 -102.78175 38167 ft 423 kts 302°
2026-04-30 13:46 40.08937 -102.84203 38169 ft 422 kts 302°
2026-04-30 13:46 40.12557 -102.90252 38174 ft 422 kts 302°
2026-04-30 13:47 40.16149 -102.96265 38172 ft 423 kts 302°
2026-04-30 13:47 40.19770 -103.02339 38181 ft 424 kts 302°
2026-04-30 13:48 40.23388 -103.08418 38177 ft 423 kts 302°
2026-04-30 13:48 40.26998 -103.14498 38176 ft 425 kts 302°
2026-04-30 13:49 40.30610 -103.20591 38178 ft 422 kts 302°
2026-04-30 13:49 40.34211 -103.26680 38178 ft 427 kts 303°
2026-04-30 13:50 40.37823 -103.32796 38180 ft 424 kts 302°
2026-04-30 13:50 40.43228 -103.41974 38177 ft 426 kts 302°
2026-04-30 13:51 40.46851 -103.48140 38176 ft 427 kts 303°
2026-04-30 13:51 40.50454 -103.54286 38168 ft 427 kts 303°
2026-04-30 13:52 40.54072 -103.60468 38166 ft 428 kts 303°
2026-04-30 13:52 40.57698 -103.66677 38175 ft 429 kts 302°
2026-04-30 13:53 40.61336 -103.72919 38179 ft 429 kts 303°
2026-04-30 13:53 40.64954 -103.79140 38178 ft 430 kts 303°
2026-04-30 13:54 40.68567 -103.85362 38175 ft 430 kts 303°
2026-04-30 13:54 40.72190 -103.91617 38176 ft 430 kts 303°
2026-04-30 13:55 40.75824 -103.97901 38175 ft 432 kts 303°
2026-04-30 13:55 40.79445 -104.04177 38177 ft 432 kts 303°
2026-04-30 13:56 40.83061 -104.10456 38175 ft 430 kts 303°
2026-04-30 13:56 40.86680 -104.16755 38178 ft 434 kts 303°
2026-04-30 13:57 40.90292 -104.23054 38178 ft 432 kts 303°
2026-04-30 13:57 40.93912 -104.29379 38178 ft 433 kts 303°
2026-04-30 13:58 40.99355 -104.38913 38174 ft 435 kts 303°
2026-04-30 13:59 41.02981 -104.45282 38175 ft 435 kts 303°
2026-04-30 13:59 41.06612 -104.51672 38176 ft 436 kts 303°
2026-04-30 14:00 41.10240 -104.58070 38175 ft 436 kts 303°
2026-04-30 14:00 41.15707 -104.67738 38197 ft 439 kts 303°
2026-04-30 14:01 41.19366 -104.74225 38198 ft 438 kts 303°
2026-04-30 14:01 41.23115 -104.80554 38202 ft 440 kts 308°
2026-04-30 14:02 41.27258 -104.86562 38198 ft 441 kts 309°
2026-04-30 14:02 41.31362 -104.92568 38196 ft 440 kts 308°
2026-04-30 14:03 41.35445 -104.98593 38174 ft 441 kts 308°
2026-04-30 14:03 41.39524 -105.04645 38155 ft 440 kts 308°
2026-04-30 14:04 41.43607 -105.10725 38147 ft 442 kts 308°
2026-04-30 14:04 41.47692 -105.16824 38139 ft 441 kts 308°
2026-04-30 14:05 41.51757 -105.22910 38145 ft 443 kts 309°
2026-04-30 14:05 41.55862 -105.29067 38143 ft 442 kts 309°
2026-04-30 14:06 41.61980 -105.38271 38139 ft 444 kts 309°
2026-04-30 14:07 41.68083 -105.47480 38138 ft 445 kts 309°
2026-04-30 14:08 41.74214 -105.56762 38136 ft 446 kts 309°
2026-04-30 14:08 41.80354 -105.66086 38146 ft 445 kts 309°
2026-04-30 14:09 41.84446 -105.72315 38153 ft 447 kts 309°
2026-04-30 14:10 41.90579 -105.81678 38159 ft 448 kts 309°
2026-04-30 14:10 41.94692 -105.87974 38161 ft 448 kts 309°
2026-04-30 14:11 41.98795 -105.94268 38162 ft 449 kts 309°
2026-04-30 14:11 42.02885 -106.00555 38166 ft 449 kts 309°
2026-04-30 14:12 42.06979 -106.06860 38163 ft 448 kts 309°
2026-04-30 14:12 42.11063 -106.13165 38167 ft 448 kts 309°
2026-04-30 14:13 42.15157 -106.19498 38162 ft 448 kts 309°
2026-04-30 14:13 42.19232 -106.25816 38158 ft 449 kts 309°
2026-04-30 14:14 42.23324 -106.32174 38157 ft 449 kts 309°
2026-04-30 14:14 42.27393 -106.38509 38154 ft 450 kts 309°
2026-04-30 14:15 42.31490 -106.44902 38154 ft 449 kts 309°
2026-04-30 14:15 42.35564 -106.51273 38162 ft 451 kts 309°
2026-04-30 14:16 42.39650 -106.57676 38165 ft 450 kts 309°
2026-04-30 14:16 42.43744 -106.64105 38174 ft 451 kts 309°
2026-04-30 14:17 42.47818 -106.70519 38192 ft 450 kts 309°
2026-04-30 14:17 42.51877 -106.76921 38205 ft 451 kts 309°
2026-04-30 14:18 42.55943 -106.83348 38197 ft 450 kts 309°
2026-04-30 14:18 42.62046 -106.93023 38185 ft 452 kts 309°
2026-04-30 14:19 42.68132 -107.02702 38164 ft 450 kts 309°
2026-04-30 14:20 42.72193 -107.09177 38167 ft 451 kts 309°
2026-04-30 14:20 42.78273 -107.18900 38153 ft 450 kts 310°
2026-04-30 14:21 42.82332 -107.25410 38165 ft 452 kts 309°
2026-04-30 14:22 42.88405 -107.35175 38154 ft 452 kts 310°
2026-04-30 14:22 42.94481 -107.44979 38166 ft 452 kts 310°
2026-04-30 14:23 43.02570 -107.58082 38186 ft 454 kts 310°
2026-04-30 14:24 43.08627 -107.67932 38192 ft 454 kts 309°
2026-04-30 14:25 43.16732 -107.81165 38217 ft 452 kts 309°
2026-04-30 14:26 43.22764 -107.91051 38223 ft 451 kts 309°
2026-04-30 14:27 43.28775 -108.00938 38215 ft 453 kts 309°
2026-04-30 14:27 43.32778 -108.07539 38213 ft 453 kts 309°
2026-04-30 14:28 43.38799 -108.17497 38196 ft 453 kts 309°
2026-04-30 14:28 43.42830 -108.24184 38201 ft 453 kts 310°
2026-04-30 14:29 43.50942 -108.35501 38198 ft 461 kts 320°
2026-04-30 14:30 43.59198 -108.45073 38227 ft 473 kts 319°
2026-04-30 14:31 43.64247 -108.50976 38225 ft 477 kts 319°
2026-04-30 14:31 43.71829 -108.59882 38232 ft 479 kts 319°
2026-04-30 14:32 43.79453 -108.68876 38237 ft 480 kts 319°
2026-04-30 14:33 43.84503 -108.74853 38232 ft 481 kts 319°
2026-04-30 14:33 43.92116 -108.83892 38223 ft 480 kts 319°
2026-04-30 14:34 43.97175 -108.89917 38222 ft 480 kts 319°
2026-04-30 14:34 44.02200 -108.95915 38219 ft 479 kts 319°
2026-04-30 14:35 44.09776 -109.04983 38219 ft 480 kts 319°
2026-04-30 14:36 44.14834 -109.11056 38194 ft 480 kts 319°
2026-04-30 14:36 44.19857 -109.17101 38169 ft 480 kts 319°
2026-04-30 14:37 44.24895 -109.23177 38147 ft 480 kts 319°
2026-04-30 14:37 44.29924 -109.29259 38157 ft 480 kts 319°
2026-04-30 14:38 44.34969 -109.35373 38201 ft 480 kts 319°
2026-04-30 14:38 44.39973 -109.41453 38231 ft 481 kts 319°
2026-04-30 14:39 44.45006 -109.47580 38252 ft 480 kts 319°
2026-04-30 14:39 44.50037 -109.53722 38242 ft 480 kts 319°
2026-04-30 14:40 44.57578 -109.62953 38234 ft 480 kts 319°
2026-04-30 14:40 44.62578 -109.69093 38229 ft 481 kts 319°
2026-04-30 14:41 44.67633 -109.75315 38198 ft 481 kts 319°
2026-04-30 14:41 44.72636 -109.81488 38189 ft 482 kts 319°
2026-04-30 14:42 44.77667 -109.87710 38214 ft 481 kts 319°
2026-04-30 14:42 44.82677 -109.93921 38237 ft 481 kts 319°
2026-04-30 14:43 44.87685 -110.00144 38259 ft 482 kts 319°
2026-04-30 14:43 44.92680 -110.06367 38257 ft 482 kts 319°
2026-04-30 14:44 44.97690 -110.12624 38244 ft 482 kts 319°
2026-04-30 14:44 45.02707 -110.18904 38227 ft 482 kts 319°
2026-04-30 14:45 45.07707 -110.25178 38207 ft 481 kts 319°
2026-04-30 14:45 45.12685 -110.31441 38224 ft 480 kts 319°
2026-04-30 14:46 45.17684 -110.37743 38238 ft 482 kts 319°
2026-04-30 14:46 45.22662 -110.44036 38255 ft 483 kts 319°
2026-04-30 14:47 45.27661 -110.50370 38274 ft 482 kts 319°
2026-04-30 14:47 45.32646 -110.56703 38263 ft 481 kts 319°
2026-04-30 14:48 45.37621 -110.63039 38250 ft 481 kts 319°
2026-04-30 14:48 45.42572 -110.69359 38259 ft 480 kts 318°
2026-04-30 14:49 45.47546 -110.75724 38261 ft 481 kts 318°
2026-04-30 14:49 45.52517 -110.82102 38249 ft 481 kts 318°
2026-04-30 14:50 45.59938 -110.91651 38251 ft 481 kts 319°
2026-04-30 14:51 45.67343 -111.01217 38255 ft 480 kts 319°
2026-04-30 14:52 45.74756 -111.10827 38242 ft 480 kts 319°
2026-04-30 14:52 45.82077 -111.20572 38243 ft 481 kts 317°
2026-04-30 14:53 45.89262 -111.30580 38258 ft 481 kts 317°
2026-04-30 14:54 45.98825 -111.43919 38270 ft 480 kts 317°
2026-04-30 14:55 46.05971 -111.53921 38259 ft 481 kts 317°
2026-04-30 14:56 46.15544 -111.67374 38261 ft 480 kts 316°
2026-04-30 14:57 46.22676 -111.77441 38235 ft 480 kts 317°
2026-04-30 14:58 46.32193 -111.90933 38236 ft 480 kts 317°
2026-04-30 14:58 46.39304 -112.01060 38251 ft 480 kts 317°
2026-04-30 15:00 46.51144 -112.18008 38243 ft 480 kts 317°
2026-04-30 15:01 46.60606 -112.31631 38248 ft 479 kts 317°
2026-04-30 15:01 46.67655 -112.41827 38241 ft 480 kts 317°
2026-04-30 15:02 46.72372 -112.48671 38224 ft 479 kts 317°
2026-04-30 15:03 46.84129 -112.65810 38262 ft 480 kts 316°
2026-04-30 15:04 46.95877 -112.83049 38281 ft 480 kts 317°
2026-04-30 15:06 47.07566 -113.00315 38281 ft 479 kts 317°
2026-04-30 15:07 47.16916 -113.14208 38273 ft 478 kts 317°
2026-04-30 15:08 47.26208 -113.28088 38266 ft 478 kts 317°
2026-04-30 15:09 47.37789 -113.45492 38278 ft 478 kts 317°
2026-04-30 15:10 47.47013 -113.59437 38276 ft 476 kts 317°
2026-04-30 15:11 47.60906 -113.80582 38271 ft 478 kts 317°
2026-04-30 15:13 47.72408 -113.98219 38263 ft 477 kts 317°
2026-04-30 15:14 47.88498 -114.23092 38236 ft 479 kts 317°
2026-04-30 15:17 48.09248 -114.55521 38267 ft 482 kts 317°
2026-04-30 15:19 48.27736 -114.84762 38255 ft 485 kts 317°
2026-04-30 17:39 59.25666 -142.01485 38188 ft 491 kts 297°
2026-04-30 17:42 59.42536 -142.59409 38181 ft 491 kts 297°
2026-04-30 17:43 59.51019 -142.89092 38187 ft 489 kts 296°
2026-04-30 17:44 59.61000 -143.24519 38183 ft 489 kts 296°
2026-04-30 17:47 59.75807 -143.78117 38180 ft 487 kts 295°
2026-04-30 17:48 59.87241 -144.20395 38173 ft 486 kts 295°
2026-04-30 17:50 59.99871 -144.68034 38163 ft 487 kts 294°
2026-04-30 17:52 60.09405 -145.04678 38176 ft 487 kts 294°
2026-04-30 17:54 60.23248 -145.58981 38173 ft 488 kts 294°
2026-04-30 17:55 60.29241 -145.82910 36097 ft 486 kts 293°
2026-04-30 17:56 60.35229 -146.07077 32999 ft 467 kts 294°
2026-04-30 17:57 60.39352 -146.23866 31007 ft 447 kts 294°
2026-04-30 17:58 60.43528 -146.41017 28704 ft 426 kts 293°
2026-04-30 17:59 60.48420 -146.62433 25860 ft 406 kts 287°
2026-04-30 18:00 60.52145 -146.84540 24808 ft 394 kts 285°
2026-04-30 18:00 60.55047 -147.02203 23858 ft 386 kts 285°
2026-04-30 18:01 60.56984 -147.14131 23213 ft 383 kts 285°
2026-04-30 18:02 60.59813 -147.31720 22263 ft 378 kts 284°
2026-04-30 18:02 60.62592 -147.49171 21324 ft 374 kts 284°
2026-04-30 18:03 60.65330 -147.66540 20407 ft 369 kts 284°
2026-04-30 18:04 60.67922 -147.83142 19530 ft 365 kts 284°
2026-04-30 18:05 60.71336 -148.05260 18329 ft 360 kts 283°
2026-04-30 18:06 60.74685 -148.27251 17165 ft 356 kts 283°
2026-04-30 18:07 60.77864 -148.48583 15945 ft 351 kts 283°
2026-04-30 18:08 60.80197 -148.64410 15014 ft 350 kts 282°
2026-04-30 18:09 60.83210 -148.85057 13881 ft 344 kts 281°
2026-04-30 18:10 60.86282 -149.06387 12810 ft 341 kts 281°
2026-04-30 18:11 60.89744 -149.27480 11575 ft 332 kts 290°
2026-04-30 18:11 60.92966 -149.41511 10837 ft 298 kts 290°
2026-04-30 18:12 60.95789 -149.53981 10257 ft 274 kts 290°
2026-04-30 18:13 60.97596 -149.62001 9517 ft 274 kts 290°
2026-04-30 18:13 60.99956 -149.72511 8566 ft 273 kts 290°
2026-04-30 18:14 61.01972 -149.81531 7161 ft 275 kts 290°
2026-04-30 18:15 61.05195 -149.93283 4285 ft 269 kts 332°
2026-04-30 18:15 61.10731 -149.96692 1282 ft 234 kts 347°
2026-04-30 18:16 61.13585 -149.98084 926 ft 183 kts 348°
2026-04-30 18:16 61.15793 -149.99153 474 ft 149 kts 347°
2026-04-30 18:17 61.16763 -149.99663 255 ft 137 kts 346°
2026-04-30 18:17 61.17647 -150.00154 168 ft 124 kts 345°
2026-04-30 18:17 61.18785 -150.00786 168 ft 46 kts 345°
2026-04-30 18:18 61.19015 -150.00914 168 ft 13 kts 349°
2026-04-30 18:18 61.19075 -150.00861 168 ft 10 kts 65°
2026-04-30 18:18 61.19094 -150.00636 167 ft 18 kts 124°
2026-04-30 18:18 61.18963 -150.00543 168 ft 21 kts 165°
2026-04-30 18:19 61.18810 -150.00453 167 ft 24 kts 163°
2026-04-30 18:19 61.18636 -150.00349 167 ft 27 kts 165°
2026-04-30 18:19 61.18423 -150.00226 167 ft 35 kts 162°
2026-04-30 18:19 61.18156 -150.00073 167 ft 41 kts 164°
2026-04-30 18:20 61.17921 -149.99936 167 ft 31 kts 163°
2026-04-30 18:20 61.17732 -149.99815 167 ft 5 kts 156°
2026-04-30 18:20 61.17674 -149.99713 167 ft 15 kts 114°
2026-04-30 18:20 61.17705 -149.99448 167 ft 21 kts 68°
2026-04-30 18:21 61.17742 -149.99190 167 ft 12 kts 101°
2026-04-30 18:21 61.17662 -149.99068 167 ft 13 kts 120°
2026-04-30 18:21 61.17681 -149.98994 167 ft 2 kts 352°
2026-04-30 18:21 61.17713 -149.98991 167 ft 5 kts 15°
2026-04-30 18:22 61.17736 -149.98978 167 ft 2 kts 16°
2026-04-30 18:22 61.17742 -149.98975 167 ft 0 kts 15°